Regional Weather Roundup
Issued by NWS Albany, NY

Home | Current Version | Previous Version | Graphics & Text | Print | Product List | Glossary On
Versions: 1 2 3 4 5 6 7 8 9 10 11 12 13 14 15 16 17 18 19 20 21 22 23 24 25 26 27 28 29 30 31 32 33 34 35 36 37 38 39 40 41 42 43 44 45 46 47 48 49 50
639
ASUS41 KALY 111010
RWRALY

NEW YORK STATE HOURLY WEATHER ROUNDUP
NATIONAL WEATHER SERVICE ALBANY NY
500 AM EST THU FEB 11 2016

NOTE: "FAIR" INDICATES FEW OR NO CLOUDS BELOW 12,000 FEET WITH NO
SIGNIFICANT WEATHER AND/OR NO OBSTRUCTIONS TO VISIBILITY.

NYZ032-033-038>043-046>054-057>066-NYZ062>081-111100-
EAST


CITY           SKY/WX    TMP DP  RH WIND       PRES   REMARKS
ALBANY         FLURRIES  22  12  65 W12       29.74R WCI  10
GLENS FALLS    CLOUDY    23  10  57 W7        29.69R WCI  15
POUGHKEEPSIE   CLOUDY    24   6  46 W16G26    29.76R WCI  11
NEWBURGH       CLOUDY    21   9  58 W17G23    29.77R WCI   7
MONTGOMERY     CLOUDY    21   5  50 W8G16     29.77R WCI  11
WHITE PLAINS   PTCLDY    23   6  48 W17G31    29.74R WCI   9
ISLIP          CLOUDY    26  12  55 NW14G22   29.74R WCI  14
NEW YORK CITY  MOCLDY    26   7  44 NW23G32   29.80R WCI  11
CENTRAL PARK   CLOUDY    25   0  33 MISG      29.82R
$$

NYZ005>009-017-018-044>046-055-056-111100-
CENTRAL


CITY           SKY/WX    TMP DP  RH WIND       PRES   REMARKS
FULTON         CLOUDY    18   7  62 W15G21    29.77S WCI   4
SYRACUSE       FLURRIES  15   6  67 W21       29.78R WCI  -2
ROME           CLOUDY    16   9  74 W7        29.77R WCI   6
ELMIRA         PTCLDY    14   4  64 W9        29.80R WCI   2
BINGHAMTON     PTCLDY     9   1  70 W7        29.71S WCI  -2
MONTICELLO     PTCLDY    14   3  62 W9G17     29.72R WCI   2
$$

NYZ026>034-041>043-111100-
NORTH


CITY           SKY/WX    TMP DP  RH WIND       PRES   REMARKS
WATERTOWN      PTCLDY     9   6  88 NW5       29.77R WCI   1
FORT DRUM      NOT AVBL
MASSENA        LGT SNOW   9   3  77 W7        29.76R WCI  -2
SARANAC LAKE   CLOUDY    11   8  88 SW3       29.57S
PLATTSBURGH    CLOUDY    19  10  68 NW6       29.68R WCI  11
$$

NYZ001>004-010>016-019>021-111100-
WEST


CITY           SKY/WX    TMP DP  RH WIND       PRES   REMARKS
NIAGARA FALLS  FLURRIES  12   2  64 W15G26    29.88R WCI  -4
BUFFALO        CLOUDY    10   1  67 W16       29.87R WCI  -7
DUNKIRK        CLOUDY    15   6  67 NW18G28   29.91R WCI  -2
JAMESTOWN      CLOUDY    10   3  72 NW15G23   29.79R WCI  -6
WELLSVILLE     LGT SNOW   9   3  77 W12G23    29.72S WCI  -6
ROCHESTER      PTCLDY    14   3  61 W20       29.82R WCI  -3
PENN YAN       PTCLDY    15   2  56 W10       29.79R WCI   2
$$

             KEY
       WCI = WIND CHILL INDEX
       VSB = VISIBILITY
       HX  = HEAT INDEX
$$




USA.gov is the U.S. government's official web portal to all federal, state and local government web resources and services.